Home   Weather   Dover   Past weeks
Flag for USA

Past Weather in Dover, Delaware, USA — Yesterday and Last 2 Weeks

Now
74 °F

Clear.


Feels Like: 76 °F
Forecast: 88 / 67 °F
Wind: 8 mph from West

Location: Dover Air Force Base

Current Time: Jun 26, 2019 at 2:42:01 am

Latest Report: Jun 26, 2019 at 1:56 am


Visibility: 10 mi

Pressure: 29.96 "Hg

Humidity: 69%

Dew Point: 63 °F

Location of DoverLocation

Past Weather in Dover — Graph

°F

Dover Temperature Yesterday

Maximum temperature yesterday: 87 °F (at 4:56 pm)
Minimum temperature yesterday: 74 °F (at 12:56 am)
Average temperature yesterday: 80 °F

High & Low Weather Summary for the Past Weeks

 TemperatureHumidityPressure
High88 °F (Jun 20, 3:56 pm)100% (Jun 11, 12:25 am)30.20 "Hg (Jun 11, 12:25 am)
Low58 °F (Jun 15, 5:56 am)32% (Jun 22, 2:56 pm)29.50 "Hg (Jun 20, 3:56 pm)
Average73 °F74%29.88 "Hg
* Reported Jun 11 12:25 am — Jun 26 12:56 am, Dover. Weather by CustomWeather, © 2019

Note: Actual official high and low records may vary slightly from our data, if they occured in-between our weather recording intervals... More about our weather records

Advertising

Dover Weather History for the Previous 24 Hours

Scroll right to see more
 ConditionsComfort  
Time TempWeatherWind HumidityBarometerVisibility
12:56 am
Wed, Jun 26
74 °FClear.6 mph71%29.95 "Hg10 mi
11:56 pm
Tue, Jun 25
76 °FClear.3 mph68%29.93 "Hg10 mi
10:56 pm77 °FClear.5 mph65%29.92 "Hg10 mi
9:56 pm78 °FClear.5 mph65%29.91 "Hg10 mi
8:56 pm81 °FClear.3 mph64%29.90 "Hg10 mi
7:56 pm83 °FSunny.5 mph57%29.89 "Hg10 mi
6:56 pm85 °FSunny.7 mph53%29.88 "Hg10 mi
5:56 pm84 °FSunny.10 mph53%29.86 "Hg10 mi
4:56 pm87 °FPassing clouds.15 mph49%29.86 "Hg10 mi
3:56 pm86 °FPassing clouds.14 mph51%29.86 "Hg10 mi
2:56 pm85 °FPassing clouds.13 mph54%29.87 "Hg10 mi
1:56 pm84 °FScattered clouds.16 mph55%29.87 "Hg10 mi
12:56 pm83 °FBroken clouds.9 mph62%29.87 "Hg10 mi
11:56 am83 °FPartly sunny.13 mph63%29.86 "Hg10 mi
10:56 am84 °FPartly sunny.14 mph65%29.84 "Hg10 mi
10:26 am82 °FScattered clouds.10 mph66%29.84 "Hg10 mi
10:16 am82 °FPartly sunny.14 mph70%29.84 "Hg10 mi
8:56 am80 °FBroken clouds.9 mph79%29.85 "Hg10 mi
7:56 am77 °FPassing clouds.8 mph90%29.82 "Hg10 mi
6:56 am75 °FPassing clouds.8 mph94%29.81 "Hg10 mi
5:56 am74 °FSunny.7 mph94%29.79 "Hg10 mi
4:56 am75 °FClear.8 mph91%29.78 "Hg10 mi
3:56 am74 °FClear.8 mph91%29.78 "Hg10 mi
2:56 am74 °FPassing clouds.8 mph92%29.80 "Hg10 mi
Weather by CustomWeather, © 2019

See weather overview